BREEZE-KM R/B, 40556

Orbit data source: Space-Track

BREEZE-KM R/B, 40556 is space debris in LEO originally from a launch on Tue, 31 Mar 2015 UTC launched from the Plesetsk Missile And Space Complex (PKMTR). Debris objects in space refer to the collection of defunct objects orbiting the Earth. Examples of debris include non-operational satellites, rocket bodies, and fragments generated from explosions, collisions, or faulty payload assembly.

Loading next visibility...
Identifier
40556, 2015-020E
Orbit
LEO
Country
Flag of CISCIS
Related business
Manufacturer
Khrunichev
Mission
Spacecraft
Bus & Motor
BRIZ, S5.92
Mass
2,370 kg wet, 2,370 kg dry
Launch date (UTC)
2015-03-31 (11 years ago)
Launch vehicle
Unknown
Launch site
Plesetsk Missile And Space Complex (PKMTR)
Object type
Payload
Rocket body
Debris
Shape & HBR
Hex Cyl + 1 Rod, 2.0 m
Radar Cross Section
10.190 m², Large (>1 m²)

Expand to show TLE details & history
Last TLE update: 15 hours ago

TLE from 15 hours ago
0 BREEZE-KM R/B
1 40556U 15020E   26227.33942183  .00000007  00000-0 -79921-5 0  9991
2 40556  82.4924 166.6015 0213667 269.9868  87.6751 12.80561705531726
Epoch: 2026-08-15T08:08Z
TLE epoch observation values (Epoch: 2026-08-15T08:08:46.046Z)
Latitude
-0°
Longitude
80.65793°
Altitude
1,338.799 km
Speed
7.19 km/s
True Right ascension
11h 06m 24s
True Declination
0° 00' 00"
Sunlit
Object was in daylight at epoch
Visualization orbit readout
Latitude
Unknown
Longitude
Unknown
Altitude
Unknown
Speed
Unknown
Apparent Right ascension
Unknown
Apparent Declination
Unknown
Sunlit
N/A
Visualization observer readout
Local Sidereal Time
13:32:27
Azimuth
Unknown
Elevation
Unknown
Doppler factor
Unknown
Orbital elements
Apogee altitude
1,501.345 km
Perigee altitude
1,171.672 km
Semi-major axis
7,714.646 km
Eccentricity
0.02137
Inclination
82.4924°
RAAN
166.6015°
Arg. of periapsis
269.9868°
True anomaly
90.12344°
Mean anomaly
87.6751°
Eccentric anomaly
88.8991°
Mean motion
3.20309 °/min
Orbital period
112.39 mins
BSTAR
-0.0000079921
Loading maneuver chart data...
Computing Atmospheric mass density...
Loading historical data...
Loading historical data...
Loading historical data...
Loading historical data...
Loading historical data...
Loading historical data...
Loading historical data...

Documentation

Showing up to 5 results
|